Hourly Data Report for February 15, 2015

All times are specified in Local Standard Time (LST). Add 1 hour to adjust for Daylight Saving Time where and when it is observed.

TORONTO INTL A
ONTARIO

43°40'36.000" N
79°37'50.000" W
173.40 m
6158731
71624
YYZ

Download Data

Hourly Data (February 2015)
Hourly Data Report for February 15, 2015
Temp Definition
°C
Dew Point Temp Definition
°C
Rel Hum Definition
%
Wind Dir Definition
10's deg

Wind Spd Definition
km/h
Visibility Definition
km
Stn Press Definition
kPa
Hmdx Definition


Wind Chill Definition


Weather Definition


TIME
00:00 -19.8 -24.6 66 34 42 9.7 99.46   -34 Blowing Snow
01:00 -20.5 -24.8 69 34 38 16.1 99.55   -35 Blowing Snow
02:00 -21.8 -26.9 64 34 48 16.1 99.66   -38 Blowing Snow
03:00 -22.7 -28.1 62 34 50 24.1 99.80   -39 Blowing Snow
04:00 -23.6 -29.3 60 34 42 24.1 99.91   -39 Blowing Snow
05:00 -24.3 -30.0 60 35 30 24.1 100.12   -38 Blowing Snow
06:00 -24.6 -30.5 59 35 42 24.1 100.21   -41 LegendNANA
07:00 -25.2 -30.9 60 35 34 24.1 100.31   -40 Mainly Clear
08:00 -25.4 -31.4 58 34 34 24.1 100.49   -40 LegendNANA
09:00 -24.8 -31.0 57 35 36 24.1 100.59   -40 LegendNANA
10:00 -23.9 -30.6 55 34 31 24.1 100.66   -38 Clear
11:00 -22.4 -29.0 56 33 43 24.1 100.69   -38 LegendNANA
12:00 -21.2 -28.0 55 34 39 24.1 100.71   -36 LegendNANA
13:00 -20.4 -27.7 53 34 30 24.1 100.67   -33 Clear
14:00 -19.7 -27.2 52 35 35 24.1 100.64   -33 LegendNANA
15:00 -19.3 -26.9 52 34 32 24.1 100.67   -32 LegendNANA
16:00 -19.6 -26.9 53 34 34 24.1 100.71   -33 Clear
17:00 -20.0 -27.5 52 33 31 24.1 100.72   -33 LegendNANA
18:00 -20.6 -27.5 55 33 30 24.1 100.77   -33 LegendNANA
19:00 -20.6 -27.9 53 33 29 24.1 100.84   -33 Clear
20:00 -21.3 -27.2 60 32 37 24.1 100.88   -35 LegendNANA
21:00 -21.5 -26.8 63 32 32 24.1 100.87   -35 LegendNANA
22:00 -21.0 -26.5 62 34 32 24.1 100.85   -34 Clear
23:00 -21.2 -26.3 64 35 31 24.1 100.78   -34 LegendNANA

Notes on Data Quality.

Legend

  • E = Estimated
  • M = Missing
  • NA = Not Available
Date modified: